Back to catalog

NAVSPASUR ROD 1

AliveMilitaryPO
NORAD 1515·PAYLOAD·🇺🇸 United States

Launched Aug 13, 1965 from Vandenberg Space Force Base

Loading…

Next Passes (next 24 hours)

TLE

FreshSource: Space-Track

Epoch: Sep 14, 2026, 09:11 UTC

1 01515U 65065G   26257.38273749  .00000531  00000-0  79541-3 0  9997
2 01515  90.0281 214.4754 0063664  56.5377  96.8665 13.51085705992363

Track NAVSPASUR ROD 1 in real time with AllMySat

Download on the App Store